Location: Unspecified
(52.0000°N, 4.4000°E)
Time: 20:42:51
(UTC+00:00)

Cosmos 1842 Rocket - Pass Details

Date: 14 May 2025
Orbit: 600 x 626 km, 82.5° (Epoch: 15 June)

Event Time Altitude Azimuth Distance (km) Brightness Sun altitude
Exits shadow 23:23:28 44° 196° (SSW) 841 3.8 -19.0°
Maximum altitude 23:24:48 84° 279° (W) 613 3.4 -19.1°
Drops below altitude 10° 23:29:09 10° 10° (N) 1,957 7.3 -19.1°
Sets 23:31:22 0° 11° (N) 2,865 8.5 -19.1°
